Location: Unspecified
(52.4292°N, 19.3359°E)
Time: 09:18:24
(UTC+02:00)

Tiros 1 - Pass Details

Date: 27 May 2024
Orbit: 624 x 657 km, 48.4° (Epoch: 22 June)

Event Time Altitude Azimuth Distance (km) Brightness Sun altitude
Rises 14:09:07 0° 268° (W) 2,978 10.9 54.6°
Reaches altitude 10° 14:11:31 10° 264° (W) 2,068 10.3 54.3°
Maximum altitude 14:16:07 49° 190° (S) 844 9.5 53.9°
Drops below altitude 10° 14:20:43 10° 115° (ESE) 2,065 9.8 53.4°
Sets 14:23:06 0° 110° (ESE) 2,974 10.4 53.2°
